| time (UTC) | temp F | wind direction | speed MPH | gust MPH | rain 1hr in | rain 24hr in | rain mn in | humidity % | barometer mb |
| 20260506073003 | 51 | 257 | 8.0 | 19.0 | 0.00 | 0.00 | 0.00 | 91 | 1019.5 |
| 20260506072403 | 51 | 238 | 7.0 | 19.0 | 0.00 | 0.00 | 0.00 | 91 | 1019.8 |
| 20260506071503 | 51 | 236 | 7.0 | 19.0 | 0.00 | 0.00 | 0.00 | 92 | 1019.5 |
| 20260506070603 | 51 | 240 | 6.0 | 17.0 | 0.00 | 0.00 | 0.00 | 92 | 1019.5 |
| 20260506062403 | 50 | 249 | 7.0 | 18.0 | 0.00 | 0.00 | 0.00 | 94 | 1019.8 |
| 20260506061503 | 49 | 266 | 7.0 | 15.0 | 0.00 | 0.00 | 0.00 | 94 | 1019.5 |
| 20260506060603 | 49 | 258 | 6.0 | 17.0 | 0.00 | 0.00 | 0.00 | 95 | 1019.8 |
| 20260506050603 | 46 | 243 | 6.0 | 14.0 | 0.00 | 0.00 | 0.00 | 92 | 1019.8 |
| 20260506044803 | 46 | 253 | 6.0 | 15.0 | 0.00 | 0.00 | 0.00 | 90 | 1019.8 |
| 20260506043903 | 46 | 261 | 6.0 | 14.0 | 0.00 | 0.00 | 0.00 | 89 | 1019.8 |
| 20260506043003 | 47 | 240 | 6.0 | 14.0 | 0.00 | 0.00 | 0.00 | 86 | 1019.8 |
| 20260506042403 | 47 | 257 | 7.0 | 13.0 | 0.00 | 0.00 | 0.00 | 86 | 1019.8 |
| 20260506041503 | 47 | 267 | 6.0 | 13.0 | 0.00 | 0.00 | 0.00 | 84 | 1019.8 |
| 20260506040603 | 47 | 246 | 5.0 | 13.0 | 0.00 | 0.00 | 0.00 | 83 | 1019.8 |
| 20260506035703 | 47 | 252 | 5.0 | 10.0 | 0.00 | 0.00 | 0.00 | 81 | 1019.8 |
| 20260506035016 | 47 | 247 | 5.0 | 10.0 | 0.00 | 0.00 | 0.00 | 80 | 1019.5 |
| 20260506033903 | 47 | 271 | 5.0 | 14.0 | 0.00 | 0.00 | 0.00 | 78 | 1019.5 |
| 20260506033004 | 47 | 233 | 5.0 | 11.0 | 0.00 | 0.00 | 0.00 | 78 | 1019.5 |
| 20260506032403 | 47 | 274 | 4.0 | 11.0 | 0.00 | 0.00 | 0.00 | 78 | 1019.5 |
| 20260506031503 | 46 | 257 | 4.0 | 9.0 | 0.00 | 0.00 | 0.00 | 78 | 1019.1 |
| 20260506030817 | 46 | 249 | 4.0 | 10.0 | 0.00 | 0.00 | 0.00 | 77 | 1019.1 |
| 20260506025917 | 47 | 255 | 4.0 | 8.0 | 0.00 | 0.00 | 0.00 | 76 | 1019.1 |
| 20260506024803 | 46 | 260 | 3.0 | 8.0 | 0.00 | 0.00 | 0.00 | 76 | 1019.1 |
| 20260506023904 | 46 | 266 | 3.0 | 8.0 | 0.00 | 0.00 | 0.00 | 76 | 1019.1 |
| 20260506023217 | 46 | 267 | 3.0 | 8.0 | 0.00 | 0.00 | 0.00 | 76 | 1018.8 |
| 20260506022404 | 46 | 270 | 3.0 | 10.0 | 0.00 | 0.00 | 0.00 | 75 | 1019.1 |
| 20260506021504 | 47 | 264 | 3.0 | 9.0 | 0.00 | 0.00 | 0.00 | 75 | 1019.1 |
| 20260506020603 | 47 | 260 | 4.0 | 8.0 | 0.00 | 0.00 | 0.00 | 75 | 1019.1 |
| 20260506015703 | 47 | 247 | 4.0 | 10.0 | 0.00 | 0.00 | 0.00 | 75 | 1018.8 |
| 20260506014804 | 47 | 267 | 4.0 | 10.0 | 0.00 | 0.00 | 0.00 | 74 | 1018.8 |
| 20260506013903 | 47 | 267 | 4.0 | 11.0 | 0.00 | 0.00 | 0.00 | 73 | 1018.4 |
| 20260506013216 | 48 | 263 | 4.0 | 11.0 | 0.00 | 0.00 | 0.00 | 72 | 1018.8 |
| 20260506012403 | 48 | 246 | 5.0 | 13.0 | 0.00 | 0.00 | 0.00 | 71 | 1018.1 |
| 20260506011503 | 48 | 264 | 4.0 | 13.0 | 0.00 | 0.00 | 0.00 | 71 | 1018.4 |
| 20260506010603 | 48 | 244 | 4.0 | 13.0 | 0.00 | 0.00 | 0.00 | 72 | 1018.1 |
| 20260506005704 | 47 | 253 | 4.0 | 11.0 | 0.00 | 0.00 | 0.00 | 73 | 1018.1 |
| 20260506005018 | 47 | 249 | 4.0 | 11.0 | 0.00 | 0.00 | 0.00 | 73 | 1018.1 |
| 20260506003903 | 47 | 253 | 4.0 | 10.0 | 0.00 | 0.00 | 0.00 | 74 | 1017.7 |
| 20260506003003 | 47 | 246 | 5.0 | 15.0 | 0.00 | 0.00 | 0.00 | 73 | 1017.4 |
| 20260506002403 | 47 | 256 | 5.0 | 15.0 | 0.00 | 0.00 | 0.00 | 73 | 1017.1 |
| 20260506001503 | 47 | 268 | 5.0 | 13.0 | 0.00 | 0.00 | 0.00 | 73 | 1017.4 |
| 20260506000819 | 47 | 274 | 6.0 | 14.0 | 0.00 | 0.00 | 0.00 | 72 | 1017.1 |
| 20260505235703 | 47 | 249 | 6.0 | 16.0 | 0.00 | 0.00 | 0.00 | 73 | 1017.1 |
| 20260505234803 | 47 | 268 | 6.0 | 13.0 | 0.00 | 0.00 | 0.00 | 73 | 1016.7 |
| 20260505233903 | 48 | 267 | 5.0 | 14.0 | 0.00 | 0.00 | 0.00 | 73 | 1016.4 |
| 20260505233003 | 48 | 250 | 5.0 | 10.0 | 0.00 | 0.00 | 0.00 | 73 | 1016.4 |
| 20260505232403 | 48 | 265 | 5.0 | 11.0 | 0.00 | 0.00 | 0.00 | 72 | 1016.4 |
| 20260505231503 | 48 | 254 | 5.0 | 15.0 | 0.00 | 0.00 | 0.00 | 72 | 1016.0 |
| 20260505230603 | 48 | 251 | 5.0 | 11.0 | 0.00 | 0.00 | 0.00 | 72 | 1016.0 |
| 20260505225703 | 48 | 262 | 4.0 | 11.0 | 0.00 | 0.00 | 0.00 | 71 | 1015.7 |
| 20260505225019 | 49 | 261 | 5.0 | 11.0 | 0.00 | 0.00 | 0.00 | 70 | 1015.7 |
| 20260505223903 | 49 | 247 | 5.0 | 11.0 | 0.00 | 0.00 | 0.00 | 68 | 1015.3 |
| 20260505223003 | 50 | 266 | 5.0 | 14.0 | 0.00 | 0.00 | 0.00 | 67 | 1015.3 |
| 20260505222403 | 50 | 265 | 6.0 | 14.0 | 0.00 | 0.00 | 0.00 | 66 | 1015.3 |
| 20260505221503 | 51 | 262 | 6.0 | 13.0 | 0.00 | 0.00 | 0.00 | 64 | 1015.3 |
| 20260505220604 | 51 | 260 | 7.0 | 15.0 | 0.00 | 0.00 | 0.00 | 63 | 1015.0 |
| 20260505215703 | 52 | 264 | 7.0 | 15.0 | 0.00 | 0.00 | 0.00 | 63 | 1014.6 |
| 20260505214803 | 52 | 269 | 6.0 | 13.0 | 0.00 | 0.00 | 0.00 | 62 | 1014.6 |
| 20260505213903 | 53 | 269 | 7.0 | 15.0 | 0.00 | 0.00 | 0.00 | 62 | 1014.6 |
| 20260505213003 | 53 | 266 | 7.0 | 17.0 | 0.00 | 0.00 | 0.00 | 60 | 1014.3 |
| 20260505212404 | 53 | 271 | 8.0 | 17.0 | 0.00 | 0.00 | 0.00 | 58 | 1014.3 |
| 20260505211503 | 55 | 260 | 8.0 | 17.0 | 0.00 | 0.00 | 0.00 | 56 | 1013.6 |
| 20260505210603 | 55 | 262 | 8.0 | 17.0 | 0.00 | 0.00 | 0.00 | 53 | 1013.9 |
| 20260505205703 | 56 | 253 | 8.0 | 21.0 | 0.00 | 0.00 | 0.00 | 48 | 1013.9 |
| 20260505204804 | 56 | 271 | 9.0 | 17.0 | 0.00 | 0.00 | 0.00 | 43 | 1013.6 |
| 20260505203903 | 56 | 264 | 8.0 | 17.0 | 0.00 | 0.00 | 0.00 | 41 | 1013.9 |
| 20260505203003 | 57 | 270 | 8.0 | 19.0 | 0.00 | 0.00 | 0.00 | 38 | 1013.6 |
| 20260505202403 | 57 | 262 | 8.0 | 16.0 | 0.00 | 0.00 | 0.00 | 38 | 1013.3 |
| 20260505201503 | 57 | 253 | 9.0 | 19.0 | 0.00 | 0.00 | 0.00 | 36 | 1013.6 |
| 20260505200819 | 58 | 265 | 9.0 | 19.0 | 0.00 | 0.00 | 0.00 | 36 | 1013.6 |
| 20260505195703 | 59 | 280 | 8.0 | 17.0 | 0.00 | 0.00 | 0.00 | 35 | 1013.3 |
| 20260505194803 | 58 | 272 | 9.0 | 21.0 | 0.00 | 0.00 | 0.00 | 34 | 1013.6 |
| 20260505194117 | 58 | 245 | 10.0 | 22.0 | 0.00 | 0.00 | 0.00 | 34 | 1013.3 |
| 20260505193004 | 58 | 260 | 11.0 | 23.0 | 0.00 | 0.00 | 0.00 | 33 | 1013.3 |
| 20260505192403 | 58 | 263 | 10.0 | 27.0 | 0.00 | 0.00 | 0.00 | 34 | 1012.9 |
| 20260505191503 | 58 | 271 | 10.0 | 23.0 | 0.00 | 0.00 | 0.00 | 35 | 1012.6 |
| 20260505190603 | 59 | 266 | 8.0 | 22.0 | 0.00 | 0.00 | 0.00 | 34 | 1012.6 |
| 20260505185918 | 58 | 258 | 9.0 | 22.0 | 0.00 | 0.00 | 0.00 | 35 | 1012.6 |
| 20260505184804 | 58 | 248 | 9.0 | 23.0 | 0.00 | 0.00 | 0.00 | 36 | 1012.6 |
| 20260505183903 | 59 | 273 | 9.0 | 17.0 | 0.00 | 0.00 | 0.00 | 35 | 1012.6 |
| 20260505183003 | 59 | 274 | 8.0 | 22.0 | 0.00 | 0.00 | 0.00 | 36 | 1012.6 |
| 20260505182403 | 58 | 256 | 9.0 | 22.0 | 0.00 | 0.00 | 0.00 | 36 | 1012.2 |
| 20260505181717 | 58 | 257 | 10.0 | 21.0 | 0.00 | 0.00 | 0.00 | 37 | 1012.6 |
| 20260505180818 | 59 | 264 | 8.0 | 24.0 | 0.00 | 0.00 | 0.00 | 37 | 1012.6 |
| 20260505175703 | 58 | 269 | 10.0 | 24.0 | 0.00 | 0.00 | 0.00 | 38 | 1012.2 |
| 20260505175017 | 59 | 268 | 10.0 | 27.0 | 0.00 | 0.00 | 0.00 | 37 | 1012.2 |
| 20260505174118 | 59 | 252 | 10.0 | 25.0 | 0.00 | 0.00 | 0.00 | 36 | 1012.2 |
| 20260505173003 | 58 | 265 | 11.0 | 27.0 | 0.00 | 0.00 | 0.00 | 36 | 1012.2 |
| 20260505172619 | 59 | 285 | 11.0 | 27.0 | 0.00 | 0.00 | 0.00 | 35 | 1011.9 |
| 20260505171716 | 59 | 249 | 10.0 | 23.0 | 0.00 | 0.00 | 0.00 | 35 | 1012.2 |
| 20260505170603 | 59 | 257 | 10.0 | 22.0 | 0.00 | 0.00 | 0.00 | 35 | 1012.2 |
| 20260505165703 | 59 | 263 | 9.0 | 19.0 | 0.00 | 0.00 | 0.00 | 36 | 1011.5 |
| 20260505164803 | 59 | 259 | 8.0 | 18.0 | 0.00 | 0.00 | 0.00 | 36 | 1011.5 |
| 20260505163903 | 59 | 264 | 9.0 | 26.0 | 0.00 | 0.00 | 0.00 | 34 | 1011.5 |
| 20260505163003 | 58 | 259 | 9.0 | 18.0 | 0.00 | 0.00 | 0.00 | 33 | 1011.5 |
| 20260505162403 | 59 | 269 | 8.0 | 17.0 | 0.00 | 0.00 | 0.00 | 34 | 1011.5 |
| 20260505161718 | 58 | 277 | 9.0 | 29.0 | 0.00 | 0.00 | 0.00 | 33 | 1011.5 |
| 20260505160603 | 58 | 272 | 10.0 | 25.0 | 0.00 | 0.00 | 0.00 | 33 | 1010.8 |
| 20260505153219 | 58 | 271 | 10.0 | 25.0 | 0.00 | 0.00 | 0.00 | 35 | 1010.8 |
| 20260505152403 | 57 | 263 | 10.0 | 23.0 | 0.00 | 0.00 | 0.00 | 37 | 1010.8 |
| 20260505151503 | 57 | 257 | 9.0 | 21.0 | 0.00 | 0.00 | 0.00 | 37 | 1010.8 |
| 20260505150603 | 57 | 259 | 10.0 | 26.0 | 0.00 | 0.00 | 0.00 | 38 | 1010.8 |
| 20260505140603 | 55 | 271 | 7.0 | 18.0 | 0.00 | 0.00 | 0.00 | 50 | 1010.2 |
| 20260505124803 | 51 | 267 | 7.0 | 19.0 | 0.00 | 0.01 | 0.00 | 65 | 1009.5 |
| 20260505123903 | 51 | 249 | 7.0 | 18.0 | 0.00 | 0.01 | 0.00 | 68 | 1009.5 |
| 20260505123003 | 50 | 263 | 7.0 | 16.0 | 0.00 | 0.01 | 0.00 | 70 | 1009.1 |
| 20260505122403 | 50 | 261 | 7.0 | 16.0 | 0.00 | 0.01 | 0.00 | 69 | 1008.8 |
| 20260505121716 | 49 | 230 | 7.0 | 19.0 | 0.00 | 0.01 | 0.00 | 72 | 1008.8 |
| 20260505120603 | 49 | 274 | 7.0 | 15.0 | 0.00 | 0.01 | 0.00 | 71 | 1008.8 |
| 20260505115703 | 49 | 278 | 6.0 | 16.0 | 0.00 | 0.01 | 0.00 | 72 | 1008.8 |
| 20260505114803 | 48 | 263 | 7.0 | 16.0 | 0.00 | 0.01 | 0.00 | 73 | 1009.1 |
| 20260505114118 | 47 | 257 | 7.0 | 14.0 | 0.00 | 0.01 | 0.00 | 75 | 1008.8 |
| 20260505113003 | 47 | 258 | 7.0 | 16.0 | 0.00 | 0.01 | 0.00 | 75 | 1008.4 |
| 20260505112403 | 47 | 258 | 7.0 | 16.0 | 0.00 | 0.01 | 0.00 | 75 | 1008.1 |
| 20260505111503 | 47 | 247 | 7.0 | 16.0 | 0.00 | 0.01 | 0.00 | 75 | 1008.1 |
| 20260505110603 | 46 | 243 | 7.0 | 16.0 | 0.00 | 0.01 | 0.00 | 76 | 1008.1 |
| 20260505101503 | 44 | 256 | 6.0 | 14.0 | 0.00 | 0.01 | 0.00 | 81 | 1007.7 |
| 20260505100817 | 43 | 235 | 6.0 | 13.0 | 0.00 | 0.01 | 0.00 | 81 | 1007.4 |
| 20260505095703 | 43 | 271 | 6.0 | 18.0 | 0.00 | 0.01 | 0.00 | 82 | 1007.4 |
| 20260505094804 | 42 | 242 | 7.0 | 17.0 | 0.00 | 0.01 | 0.00 | 82 | 1007.1 |
| 20260505093903 | 42 | 235 | 6.0 | 15.0 | 0.00 | 0.01 | 0.00 | 82 | 1007.1 |
| 20260505093004 | 42 | 276 | 6.0 | 15.0 | 0.00 | 0.01 | 0.00 | 82 | 1007.1 |
| 20260505092403 | 41 | 276 | 6.0 | 15.0 | 0.00 | 0.01 | 0.00 | 82 | 1007.1 |
| 20260505091717 | 41 | 272 | 7.0 | 14.0 | 0.00 | 0.01 | 0.00 | 83 | 1006.7 |
| 20260505090603 | 40 | 252 | 6.0 | 14.0 | 0.00 | 0.01 | 0.00 | 84 | 1007.1 |
| 20260505085703 | 40 | 247 | 5.0 | 13.0 | 0.00 | 0.01 | 0.00 | 85 | 1006.7 |
| 20260505084804 | 40 | 295 | 6.0 | 14.0 | 0.00 | 0.01 | 0.00 | 87 | 1006.7 |
| 20260505083903 | 39 | 242 | 6.0 | 15.0 | 0.00 | 0.01 | 0.00 | 87 | 1006.4 |
| 20260505083218 | 39 | 249 | 6.0 | 16.0 | 0.00 | 0.01 | 0.00 | 88 | 1007.1 |
| 20260505082404 | 39 | 254 | 7.0 | 18.0 | 0.00 | 0.01 | 0.00 | 87 | 1006.0 |
| 20260505081503 | 39 | 237 | 6.0 | 16.0 | 0.00 | 0.01 | 0.00 | 87 | 1006.4 |
| 20260505080603 | 39 | 249 | 4.0 | 11.0 | 0.00 | 0.01 | 0.00 | 87 | 1006.4 |
| 20260505075703 | 39 | 247 | 6.0 | 16.0 | 0.00 | 0.01 | 0.00 | 87 | 1006.0 |
| 20260505075017 | 39 | 250 | 6.0 | 16.0 | 0.00 | 0.01 | 0.00 | 86 | 1006.4 |